TimeCST,TemperatureF,Dew PointF,Humidity,Sea Level PressureIn,VisibilityMPH,Wind Direction,Wind SpeedMPH,Gust SpeedMPH,PrecipitationIn,Events,Conditions,WindDirDegrees,DateUTC
12:55 AM,48.6,42.1,78,-9999,10.0,NW,6.9,-,N/A,,Clear,320,2012-11-24 06:55:00
1:55 AM,45.5,38.3,76,-9999,10.0,NW,5.8,-,N/A,,Clear,310,2012-11-24 07:55:00
2:55 AM,43.7,36.1,75,-9999,10.0,NW,6.9,-,N/A,,Clear,310,2012-11-24 08:55:00
3:55 AM,42.1,34.9,76,-9999,10.0,WNW,3.5,-,N/A,,Clear,290,2012-11-24 09:55:00
4:55 AM,40.3,34.5,80,-9999,10.0,WNW,4.6,-,N/A,,Clear,290,2012-11-24 10:55:00
5:55 AM,38.8,33.8,82,-9999,10.0,WNW,4.6,-,N/A,,Clear,300,2012-11-24 11:55:00
6:55 AM,39.2,33.3,79,-9999,10.0,West,3.5,-,N/A,,Clear,280,2012-11-24 12:55:00
7:55 AM,42.4,33.6,71,-9999,10.0,WNW,5.8,-,N/A,,Clear,300,2012-11-24 13:55:00
8:55 AM,46.9,31.8,56,-9999,10.0,NNW,9.2,-,N/A,,Clear,330,2012-11-24 14:55:00
9:55 AM,50.4,29.1,44,-9999,10.0,NW,10.4,-,N/A,,Clear,320,2012-11-24 15:55:00
10:55 AM,53.1,23.5,32,-9999,10.0,North,9.2,-,N/A,,Clear,360,2012-11-24 16:55:00
11:55 AM,54.7,21.4,27,-9999,10.0,Variable,5.8,-,N/A,,Clear,0,2012-11-24 17:55:00
12:55 PM,56.3,19.8,24,-9999,10.0,NNW,6.9,-,N/A,,Clear,340,2012-11-24 18:55:00
1:55 PM,56.8,20.5,24,-9999,10.0,NW,9.2,-,N/A,,Clear,320,2012-11-24 19:55:00
2:55 PM,56.5,19.2,23,-9999,10.0,WNW,8.1,-,N/A,,Clear,300,2012-11-24 20:55:00
3:55 PM,54.3,19.4,26,-9999,10.0,NW,8.1,-,N/A,,Clear,310,2012-11-24 21:55:00
4:55 PM,48.9,21.2,34,-9999,10.0,NW,4.6,-,N/A,,Clear,310,2012-11-24 22:55:00
5:55 PM,46.4,22.3,39,-9999,10.0,North,-9999.0,-,N/A,,Clear,0,2012-11-24 23:55:00
6:55 PM,43.5,23.4,45,-9999,10.0,NW,4.6,-,N/A,,Clear,320,2012-11-25 00:55:00
7:55 PM,41.7,23.7,49,-9999,10.0,NW,5.8,-,N/A,,Clear,310,2012-11-25 01:55:00
8:55 PM,40.8,23.7,51,-9999,10.0,North,-9999.0,-,N/A,,Clear,0,2012-11-25 02:55:00
9:55 PM,36.1,26.1,67,-9999,10.0,Calm,Calm,-,N/A,,Clear,0,2012-11-25 03:55:00
10:55 PM,34.7,26.8,73,-9999,10.0,Calm,Calm,-,N/A,,Clear,0,2012-11-25 04:55:00
11:55 PM,32.0,27.3,83,-9999,10.0,Calm,Calm,-,N/A,,Clear,0,2012-11-25 05:55:00